|
|
Asteroid 2012 BM86
(Preview)
Orbital elements:
2012 BM86 PHA, Earth MOID = 0.0163 AU
Epoch 2012 Mar. 14.0 TT = JDT 2456000.5 MPC
M 352.14916 (2000.0) P Q
n 0.34317272 Peri. 51.44057 -0.78516428 +0.61783417
a 2.0205094 Node 166.54087 -0.60961435 -0.75903162
e 0.5932131 Incl. 10.49679 -0.10902938 -0.20530936
P 2.87 H...
|
Blobrana
|
3
|
|
|
|
|
Asteroid 2007 WU3
(Preview)
The 56 - 120 metre wide asteroid 2007 WU3 will make a close pass (71.3 lunar distances, 0.1831 AU), travelling at 6.28 km/second, to the Earth-Moon system on the 6th April, 2012 @ 00:01 UT ±1 day 05:08. See more The Lunar Dist...
|
Blobrana
|
5
|
|
|
|
|
Asteroid 2012 HL
(Preview)
Orbital elements:
2012 HL Earth MOID = 0.0495 AU
Epoch 2012 Mar. 14.0 TT = JDT 2456000.5 MPC
M 335.78305 (2000.0) P Q
n 0.32281865 Peri. 40.39128 -0.33262911 +0.93948063
a 2.1045713 Node 210.44344 -0.90161011 -0.34231720
e 0.5244496 Incl. 9.32044 -0.27650875 -0.01396686
P 3.05 H 22.5 G 0....
|
Blobrana
|
2
|
|
|
|
|
Asteroid 2012 RM2
(Preview)
Orbital elements:
2012 RM2 Earth MOID = 0.0606 AU
Epoch 2012 Sept. 30.0 TT = JDT 2456200.5 MPC
M 19.17873 (2000.0) P Q
n 0.33455677 Peri. 111.31871 +0.55606433 +0.83093591
a 2.0550521 Node 192.51553 -0.79053648 +0.52194117
e 0.5176089 Incl. 4.86652 -0.25660190 +0.19267312
P 2.95 H 22.6 G...
|
Blobrana
|
1
|
|
|
|
|
Asteroid 2012 FC71
(Preview)
Orbital elements:
2012 FC71 Earth MOID = 0.0567 AU
Epoch 2012 Mar. 14.0 TT = JDT 2456000.5 MPC
M 144.67183 (2000.0) P Q
n 1.00123715 Peri. 348.64489 +0.88606748 -0.46046940
a 0.9895660 Node 38.91653 +0.43168563 +0.77767160
e 0.0867339 Incl. 4.87706 +0.16891397 +0.42801263
P 0.98 H 25.4 G...
|
Blobrana
|
4
|
|
|
|
|
Asteroid 2012 XB112
(Preview)
Orbital elements:
2012 XB112 Earth MOID = 0.0025 AU
Epoch 2012 Sept. 30.0 TT = JDT 2456200.5 MPC
M 223.54156 (2000.0) P Q
n 0.94495361 Peri. 83.40753 -0.95768398 -0.28493684
a 1.0284797 Node 80.03164 +0.24506965 -0.88132310
e 0.1406941 Incl. 2.36542 +0.15093792 -0.37693579
P 1.04 H 29.9...
|
Blobrana
|
4
|
|
|
|
|
Asteroid (72) Feronia
(Preview)
Asteroid (72) Feronia is at Opposition on the 7th September, 2012. Magnitude: 10.9 Distance to Earth: 1.029 AU Distance to Sun center: 2.033 AUSpoiler
|
Blobrana
|
2
|
|
|
|
|
Asteroid 2012 KN18
(Preview)
Orbital elements:
2012 KN18 Earth MOID = 0.0310 AU
Epoch 2012 Mar. 14.0 TT = JDT 2456000.5 MPC
M 337.02029 (2000.0) P Q
n 0.22068509 Peri. 104.13279 +0.19926937 +0.97994322
a 2.7119856 Node 177.35960 -0.91295790 +0.18628953
e 0.6350142 Incl. 2.15402 -0.35608929 +0.07076364
P 4.47 H 24.5...
|
Blobrana
|
1
|
|
|
|
|
Asteroid 2012 AA11
(Preview)
Orbital elements:
2012 AA11 Earth MOID = 0.0545 AU
Epoch 2012 Mar. 14.0 TT = JDT 2456000.5 MPC
M 359.91298 (2000.0) P Q
n 0.35498983 Peri. 144.19473 -0.97439110 -0.22031479
a 1.9754169 Node 23.20046 +0.17041954 -0.85406110
e 0.4824119 Incl. 6.55645 +0.14669411 -0.47121230
P 2.78 H 20.1 G...
|
Blobrana
|
1
|
|
|
|
|
Asteroid 2006 KY67
(Preview)
The 68 - 150 metre wide asteroid 2006 KY67 will make a close pass (58.3 lunar distances, 0.1499 AU), travelling at 13.88 km/second, to the Earth-Moon system on the 23rd May, 2012 @ 12:36 UT ±11:18. See more The Lunar Dista...
|
Blobrana
|
1
|
|
|
|
|
Asteroid 2012 MU2
(Preview)
Orbital elements:
2012 MU2 PHA, Earth MOID = 0.0042 AU
Epoch 2012 Mar. 14.0 TT = JDT 2456000.5 MPC
M 327.41080 (2000.0) P Q
n 0.31879933 Peri. 16.43360 -0.06346044 +0.98021013
a 2.1222235 Node 250.23438 -0.93659331 -0.12337851
e 0.5311405 Incl. 11.49319 -0.34462406 +0.15480905
P 3.09 H 2...
|
Blobrana
|
2
|
|
|
|
|
Asteroid 2012 VU76
(Preview)
Orbital elements:
2012 VU76 Earth MOID = 0.0022 AU
Epoch 2012 Sept. 30.0 TT = JDT 2456200.5 MPC
M 244.80487 (2000.0) P Q
n 0.95320358 Peri. 87.11434 -0.75936665 -0.64384443
a 1.0225368 Node 52.78560 +0.54023565 -0.70435856
e 0.1284132 Incl. 6.77507 +0.36263994 -0.29890360
P 1.03 H 25.8 G...
|
Blobrana
|
5
|
|
|
|
|
Asteroid 2012 KN11
(Preview)
Orbital elements:
2012 KN11 PHA, Earth MOID = 0.0207 AU
Epoch 2012 Mar. 14.0 TT = JDT 2456000.5 MPC
M 3.34626 (2000.0) P Q
n 0.32093952 Peri. 238.00257 -0.75335779 -0.65082735
a 2.1127782 Node 261.21320 +0.63092830 -0.67493933
e 0.6582980 Incl. 5.47034 +0.18542255 -0.34767897
P 3.07 H 21...
|
Blobrana
|
1
|
|
|
|
|
Asteroid 2012 TS
(Preview)
Orbital elements:
2012 TS Earth MOID = 0.0905 AU
Epoch 2012 Sept. 30.0 TT = JDT 2456200.5 MPC
M 142.40958 (2000.0) P Q
n 1.00103166 Peri. 21.07447 -0.85067766 +0.52292597
a 0.9897014 Node 190.94395 -0.51370012 -0.84864879
e 0.1142184 Incl. 16.46668 -0.11162306 -0.07964710
P 0.98 H 20.7 G...
|
Blobrana
|
3
|
|
|
|
|
Asteroid 2012 FW23
(Preview)
Orbital elements:
2012 FW23 Earth MOID = 0.1270 AU
Epoch 2012 Mar. 14.0 TT = JDT 2456000.5 MPC
M 333.86578 (2000.0) P Q
n 0.65923417 Peri. 25.35229 -0.86087192 +0.50848840
a 1.3075036 Node 185.32199 -0.49408780 -0.84404211
e 0.1456167 Incl. 11.45112 -0.12155980 -0.17038917
P 1.50 H 24.5...
|
Blobrana
|
2
|
|
|